Year,Month,Day,Hour,Minute,Value (Times are PST for temperature in C)
2015,06,29,00,01,19.10
2015,06,29,00,02,19.20
2015,06,29,00,03,19.30
2015,06,29,00,04,19.30
2015,06,29,00,06,19.50
2015,06,29,00,07,19.50
2015,06,29,00,08,19.60
2015,06,29,00,09,19.60
2015,06,29,00,11,19.70
2015,06,29,00,12,19.70
2015,06,29,00,13,19.80
2015,06,29,00,14,19.80
2015,06,29,00,16,19.90
2015,06,29,00,17,19.90
2015,06,29,00,18,19.90
2015,06,29,00,19,19.90
2015,06,29,00,21,19.90
2015,06,29,00,22,20.10
2015,06,29,00,23,20.10
2015,06,29,00,24,20.10
2015,06,29,00,26,20.20
2015,06,29,00,27,20.20
2015,06,29,00,28,20.20
2015,06,29,00,29,20.20
2015,06,29,00,31,20.20
2015,06,29,00,32,20.20
2015,06,29,00,33,20.30
2015,06,29,00,34,20.30
2015,06,29,00,35,20.30
2015,06,29,00,36,20.40
2015,06,29,00,37,20.40
2015,06,29,00,38,20.50
2015,06,29,00,39,20.50
2015,06,29,00,40,20.50
2015,06,29,00,41,20.60
2015,06,29,00,42,20.60
2015,06,29,00,43,20.70
2015,06,29,00,44,20.70
2015,06,29,00,45,20.70
2015,06,29,00,46,20.80
2015,06,29,00,47,20.80
2015,06,29,00,48,20.80
2015,06,29,00,49,20.90
2015,06,29,00,50,20.90
2015,06,29,00,51,21.00
2015,06,29,00,52,21.00
2015,06,29,00,53,21.00
2015,06,29,00,54,21.10
2015,06,29,00,55,21.10
2015,06,29,00,56,21.10
2015,06,29,00,57,21.20
2015,06,29,00,58,21.20
2015,06,29,00,59,21.20
2015,06,29,01,00,21.20
2015,06,29,01,01,21.20
2015,06,29,01,02,21.20
2015,06,29,01,03,21.30
2015,06,29,01,04,21.30
2015,06,29,01,05,21.30
2015,06,29,01,06,21.30
2015,06,29,01,07,21.30
2015,06,29,01,08,21.20
2015,06,29,01,09,21.30
2015,06,29,01,10,21.20
2015,06,29,01,11,21.30
2015,06,29,01,12,21.30
2015,06,29,01,13,21.20
2015,06,29,01,14,21.20
2015,06,29,01,15,21.20
2015,06,29,01,16,21.20
2015,06,29,01,17,21.10
2015,06,29,01,18,21.10
2015,06,29,01,19,21.00
2015,06,29,01,20,21.00
2015,06,29,01,21,20.90
2015,06,29,01,22,20.90
2015,06,29,01,23,20.90
2015,06,29,01,24,20.80
2015,06,29,01,25,20.80
2015,06,29,01,26,20.70
2015,06,29,01,27,20.70
2015,06,29,01,28,20.70
2015,06,29,01,29,20.60
2015,06,29,01,30,20.60
2015,06,29,01,32,20.50
2015,06,29,01,33,20.40
2015,06,29,01,34,20.30
2015,06,29,01,36,20.20
2015,06,29,01,37,20.20
2015,06,29,01,38,20.10
2015,06,29,01,39,19.90
2015,06,29,01,41,19.60
2015,06,29,01,42,19.50
2015,06,29,01,43,19.40
2015,06,29,01,44,19.20
2015,06,29,01,46,18.90
2015,06,29,01,47,18.90
2015,06,29,01,48,18.80
2015,06,29,01,49,18.70
2015,06,29,01,52,18.40
2015,06,29,01,53,18.30
2015,06,29,01,54,18.20
2015,06,29,01,56,17.90
2015,06,29,01,57,17.70
2015,06,29,01,58,17.60
2015,06,29,01,59,17.40
2015,06,29,02,01,17.30
2015,06,29,02,02,17.20
2015,06,29,02,03,17.10
2015,06,29,02,04,17.00
2015,06,29,02,05,17.00
2015,06,29,02,17,16.40
2015,06,29,02,18,16.40
2015,06,29,02,19,16.40
2015,06,29,02,21,16.30
2015,06,29,02,22,16.30
2015,06,29,02,23,16.20
2015,06,29,08,36,16.90
2015,06,29,08,37,16.80
2015,06,29,08,38,16.80
2015,06,29,08,41,16.70
2015,06,29,08,42,16.70
2015,06,29,08,43,16.70
2015,06,29,08,44,16.70
2015,06,29,08,46,16.70
2015,06,29,08,47,16.70
2015,06,29,08,48,16.70
2015,06,29,08,49,16.70
2015,06,29,08,51,16.80
2015,06,29,08,52,16.90
2015,06,29,08,53,17.00
2015,06,29,08,54,17.00
2015,06,29,08,55,17.00
2015,06,29,08,56,17.10
2015,06,29,08,57,17.10
2015,06,29,08,58,17.20
2015,06,29,08,59,17.20
2015,06,29,09,00,17.20
2015,06,29,09,01,17.30
2015,06,29,09,02,17.30
2015,06,29,09,03,17.30
2015,06,29,09,04,17.30
2015,06,29,09,05,17.30
2015,06,29,09,06,17.30
2015,06,29,09,07,17.30
2015,06,29,09,08,17.20
2015,06,29,09,09,17.20
2015,06,29,09,10,17.20
2015,06,29,09,11,17.20
2015,06,29,09,12,17.20
2015,06,29,09,13,17.30
2015,06,29,09,14,17.30
2015,06,29,09,15,17.30
2015,06,29,09,16,17.30
2015,06,29,09,17,17.40
2015,06,29,09,18,17.50
2015,06,29,09,19,17.60
2015,06,29,09,20,17.70
2015,06,29,09,21,17.80
2015,06,29,09,22,17.90
2015,06,29,09,23,17.90
2015,06,29,09,24,18.10
2015,06,29,09,25,18.20
2015,06,29,09,26,18.20
2015,06,29,09,27,18.20
2015,06,29,09,28,18.30
2015,06,29,09,29,18.40
2015,06,29,09,30,18.60
2015,06,29,09,31,18.60
2015,06,29,09,32,18.70
2015,06,29,09,33,18.80
2015,06,29,09,34,18.80
2015,06,29,09,35,18.90
2015,06,29,09,36,18.90
2015,06,29,09,37,18.90
2015,06,29,09,38,18.90
2015,06,29,09,39,18.90
2015,06,29,09,40,19.10
2015,06,29,09,41,19.10
2015,06,29,09,42,19.10
2015,06,29,09,43,19.10
2015,06,29,09,44,19.10
2015,06,29,09,45,19.20
2015,06,29,09,46,19.30
2015,06,29,09,47,19.40
2015,06,29,09,48,19.50
2015,06,29,09,49,19.60
2015,06,29,09,50,19.70
2015,06,29,09,51,19.70
2015,06,29,09,52,19.80
2015,06,29,09,53,19.80
2015,06,29,09,54,19.90
2015,06,29,09,55,19.90
2015,06,29,09,56,19.90
2015,06,29,09,57,20.10
2015,06,29,09,58,20.10
2015,06,29,09,59,20.10
2015,06,29,10,00,20.10
2015,06,29,10,01,20.10
2015,06,29,10,02,20.20
2015,06,29,10,03,20.20
2015,06,29,10,04,20.20
2015,06,29,10,05,20.20
2015,06,29,10,06,20.30
2015,06,29,10,07,20.40
2015,06,29,10,08,20.50
2015,06,29,10,09,20.50
2015,06,29,10,10,20.50
2015,06,29,10,12,20.50
2015,06,29,10,13,20.50
2015,06,29,10,14,20.50
2015,06,29,10,16,20.40
2015,06,29,10,17,20.30
2015,06,29,10,18,20.20
2015,06,29,10,19,20.20
2015,06,29,10,21,20.20
2015,06,29,10,22,20.20
2015,06,29,10,23,20.20
2015,06,29,10,24,20.20
2015,06,29,10,26,20.20
2015,06,29,10,27,20.30
2015,06,29,10,28,20.30
2015,06,29,10,29,20.30
2015,06,29,10,30,20.40
2015,06,29,13,10,18.60
2015,06,29,13,11,18.40
2015,06,29,13,12,18.40
2015,06,29,13,13,18.30
2015,06,29,13,14,18.30
2015,06,29,13,16,18.20
2015,06,29,13,17,18.10
2015,06,29,13,18,17.90
2015,06,29,13,19,17.90
2015,06,29,13,21,17.90
2015,06,29,13,22,17.90
2015,06,29,13,23,18.10
2015,06,29,13,24,18.10
2015,06,29,13,26,18.10
2015,06,29,13,27,18.10
2015,06,29,13,28,18.20
2015,06,29,13,29,18.20
2015,06,29,13,31,18.10
2015,06,29,13,32,18.10
2015,06,29,13,33,17.90
2015,06,29,13,34,17.90
2015,06,29,13,36,17.90
2015,06,29,13,37,17.90
2015,06,29,13,38,17.90
2015,06,29,13,39,17.90
2015,06,29,13,41,17.90
2015,06,29,13,42,17.90
2015,06,29,13,43,18.10
2015,06,29,13,44,18.10
2015,06,29,13,46,17.90
2015,06,29,13,47,17.90
2015,06,29,13,48,17.90
2015,06,29,13,49,17.90
2015,06,29,13,51,17.70
2015,06,29,13,52,17.60
2015,06,29,13,53,17.60
2015,06,29,13,54,17.60
2015,06,29,13,56,17.70
2015,06,29,13,57,17.60
2015,06,29,13,58,17.50
2015,06,29,13,59,17.50
2015,06,29,14,01,17.50
2015,06,29,14,02,17.50
2015,06,29,14,03,17.50
2015,06,29,14,04,17.50
2015,06,29,14,06,17.60
2015,06,29,14,07,17.60
2015,06,29,14,08,17.60
2015,06,29,14,09,17.70
2015,06,29,14,11,17.60
2015,06,29,14,12,17.60
2015,06,29,14,13,17.50
2015,06,29,14,14,17.50
2015,06,29,14,16,17.50
2015,06,29,14,17,17.40
2015,06,29,14,18,17.40
2015,06,29,14,19,17.40
2015,06,29,14,21,17.40
2015,06,29,14,22,17.40
2015,06,29,14,23,17.40
2015,06,29,14,24,17.50
2015,06,29,14,26,17.70
2015,06,29,14,27,17.80
2015,06,29,14,28,17.80
2015,06,29,14,29,17.80
2015,06,29,14,31,17.80
2015,06,29,14,32,17.80
2015,06,29,14,33,17.90
2015,06,29,14,34,17.90
2015,06,29,14,36,18.20
2015,06,29,14,37,18.20
2015,06,29,14,38,18.20
2015,06,29,14,39,18.30
2015,06,29,14,41,18.30
2015,06,29,14,42,18.30
2015,06,29,14,43,18.40
2015,06,29,14,44,18.40
2015,06,29,14,46,18.40
2015,06,29,14,47,18.40
2015,06,29,14,48,18.50
2015,06,29,14,49,18.60
2015,06,29,14,51,18.80
2015,06,29,14,52,18.90
2015,06,29,14,53,18.90
2015,06,29,14,54,19.10
2015,06,29,14,55,19.20
2015,06,29,14,56,19.30
2015,06,29,14,57,19.40
2015,06,29,14,58,19.50
2015,06,29,14,59,19.70
2015,06,29,15,00,19.80
2015,06,29,15,01,19.90
2015,06,29,15,02,20.20
2015,06,29,15,03,20.20
2015,06,29,15,04,20.40
2015,06,29,15,05,20.60
2015,06,29,15,06,20.70
2015,06,29,15,07,20.90
2015,06,29,15,08,21.10
2015,06,29,15,09,21.20
2015,06,29,15,10,21.30
2015,06,29,15,11,21.30
2015,06,29,15,12,21.60
2015,06,29,15,13,21.70
2015,06,29,15,14,22.00
2015,06,29,15,15,22.40
2015,06,29,15,16,22.90
2015,06,29,15,17,23.70
2015,06,29,15,18,24.20
2015,06,29,15,19,24.70
2015,06,29,15,20,25.30
2015,06,29,15,21,25.80
2015,06,29,15,22,26.20
2015,06,29,15,23,26.70
2015,06,29,15,24,26.90
2015,06,29,15,25,27.20
2015,06,29,15,26,27.40
2015,06,29,15,27,27.60
2015,06,29,15,28,27.80
2015,06,29,15,29,27.80
2015,06,29,15,30,27.80
2015,06,29,15,31,27.80
2015,06,29,15,32,27.80
2015,06,29,15,33,27.80
2015,06,29,15,34,27.80
2015,06,29,15,35,27.70
2015,06,29,15,36,27.70
2015,06,29,15,37,27.60
2015,06,29,15,38,27.60
2015,06,29,15,39,27.40
2015,06,29,15,40,27.30
2015,06,29,15,41,27.30
2015,06,29,15,42,27.20
2015,06,29,15,43,26.90
2015,06,29,15,44,26.30
2015,06,29,15,45,25.60
2015,06,29,15,46,24.90
2015,06,29,15,47,24.40
2015,06,29,15,48,24.10
2015,06,29,15,49,23.70
2015,06,29,15,50,23.40
2015,06,29,15,51,23.20
2015,06,29,15,52,22.90
2015,06,29,15,53,22.90
2015,06,29,15,54,22.80
2015,06,29,15,55,22.70
2015,06,29,15,56,22.60
2015,06,29,15,57,22.50
2015,06,29,15,58,22.40
2015,06,29,15,59,22.40
2015,06,29,16,00,22.30
2015,06,29,16,01,22.20
2015,06,29,16,03,22.00
2015,06,29,16,04,21.90
2015,06,29,16,06,21.70
2015,06,29,16,07,21.70
2015,06,29,16,08,21.60
2015,06,29,16,09,21.60
2015,06,29,16,11,21.30
2015,06,29,16,12,21.30
2015,06,29,16,13,21.20
2015,06,29,16,14,21.00
2015,06,29,16,16,20.60
2015,06,29,16,17,20.50
2015,06,29,16,18,20.40
2015,06,29,16,19,20.30
2015,06,29,16,21,19.90
2015,06,29,16,22,19.80
2015,06,29,16,23,19.70
2015,06,29,16,24,19.60
2015,06,29,16,26,19.50
2015,06,29,16,27,19.50
2015,06,29,16,28,19.60
2015,06,29,16,29,19.60
2015,06,29,16,31,19.90
2015,06,29,16,32,19.90
2015,06,29,16,33,20.20
2015,06,29,16,34,20.20
2015,06,29,16,36,20.60
2015,06,29,16,37,20.70
2015,06,29,16,38,20.90
2015,06,29,16,39,21.10
2015,06,29,16,41,21.30
2015,06,29,16,42,21.40
2015,06,29,16,43,21.60
2015,06,29,16,44,21.80
2015,06,29,16,46,22.20
2015,06,29,16,47,22.50
2015,06,29,16,48,22.80
2015,06,29,16,49,23.20
2015,06,29,16,51,23.90
2015,06,29,16,52,24.30
2015,06,29,16,53,24.80
2015,06,29,16,54,25.20
2015,06,29,16,56,26.00
2015,06,29,16,57,26.30
2015,06,29,16,58,26.60
2015,06,29,16,59,26.90
2015,06,29,17,01,27.30
2015,06,29,17,02,27.60
2015,06,29,17,03,27.80
2015,06,29,17,04,28.00
2015,06,29,17,06,28.20
2015,06,29,17,07,28.30
2015,06,29,17,08,28.60
2015,06,29,17,09,28.60
2015,06,29,17,10,28.70
2015,06,29,17,11,28.80
2015,06,29,17,12,28.80
2015,06,29,17,13,28.70
2015,06,29,17,14,28.60
2015,06,29,17,15,28.30
2015,06,29,17,16,28.20
2015,06,29,17,17,28.10
2015,06,29,17,18,28.20
2015,06,29,17,19,28.20
2015,06,29,17,20,28.20
2015,06,29,17,21,28.30
2015,06,29,17,22,28.30
2015,06,29,17,23,28.40
2015,06,29,17,24,28.60
2015,06,29,17,25,28.60
2015,06,29,17,26,28.70
2015,06,29,17,27,28.80
2015,06,29,17,28,28.80
2015,06,29,17,29,28.90
2015,06,29,17,30,28.90
2015,06,29,17,31,28.90
2015,06,29,17,32,28.90
2015,06,29,17,33,29.10
2015,06,29,17,34,28.90
2015,06,29,17,35,28.60
2015,06,29,17,36,28.10
2015,06,29,17,37,27.40
2015,06,29,17,38,26.90
2015,06,29,17,39,26.60
2015,06,29,17,40,26.10
2015,06,29,17,41,25.80
2015,06,29,17,42,25.60
2015,06,29,17,43,25.40
2015,06,29,17,44,25.20
2015,06,29,17,45,25.10
2015,06,29,17,46,25.10
2015,06,29,17,47,25.00
2015,06,29,17,48,24.80
2015,06,29,17,49,24.70
2015,06,29,17,50,24.50
2015,06,29,17,51,24.40
2015,06,29,17,52,24.30
2015,06,29,17,53,24.30
2015,06,29,17,54,24.20
2015,06,29,17,55,24.20
2015,06,29,17,56,24.10
2015,06,29,17,57,24.10
2015,06,29,17,58,23.80
2015,06,29,17,59,23.70
2015,06,29,18,00,23.60
2015,06,29,18,02,23.30
2015,06,29,18,03,23.30
2015,06,29,18,04,23.20
2015,06,29,18,06,22.90
2015,06,29,18,07,22.70
2015,06,29,18,08,22.60
2015,06,29,18,09,22.60
2015,06,29,18,11,22.50
2015,06,29,18,12,22.40
2015,06,29,18,13,22.40
2015,06,29,18,14,22.40
2015,06,29,18,16,22.30
2015,06,29,18,17,22.30
2015,06,29,18,18,22.30
2015,06,29,18,19,22.20
2015,06,29,18,21,22.20
2015,06,29,18,22,22.20
2015,06,29,18,23,22.20
2015,06,29,18,24,22.30
2015,06,29,18,26,22.30
2015,06,29,18,27,22.30
2015,06,29,18,28,22.20
2015,06,29,18,29,22.10
2015,06,29,18,31,21.90
2015,06,29,18,32,21.70
2015,06,29,18,33,21.60
2015,06,29,18,34,21.40
2015,06,29,18,36,21.20
2015,06,29,18,37,21.10
2015,06,29,18,38,21.00
2015,06,29,18,39,20.90
2015,06,29,18,41,20.90
2015,06,29,18,42,20.80
2015,06,29,18,43,20.80
2015,06,29,18,44,20.90
2015,06,29,18,46,21.00
2015,06,29,18,47,21.10
2015,06,29,18,48,21.20
2015,06,29,18,49,21.30
2015,06,29,18,51,21.60
2015,06,29,18,52,21.80
2015,06,29,18,53,22.00
2015,06,29,18,54,22.20
2015,06,29,18,56,22.60
2015,06,29,18,57,22.90
2015,06,29,18,58,23.20
2015,06,29,18,59,23.60
2015,06,29,19,01,24.10
2015,06,29,19,02,24.50
2015,06,29,19,03,24.80
2015,06,29,19,04,25.10
2015,06,29,19,06,25.70
2015,06,29,19,07,25.90
2015,06,29,19,08,26.00
2015,06,29,19,09,26.00
2015,06,29,19,11,25.90
2015,06,29,19,12,25.80
2015,06,29,19,13,25.60
2015,06,29,19,14,25.40
2015,06,29,19,16,24.90
2015,06,29,19,17,24.60
2015,06,29,19,18,24.20
2015,06,29,19,19,23.90
2015,06,29,19,21,23.30
2015,06,29,19,22,23.10
2015,06,29,19,23,22.80
2015,06,29,19,24,22.50
2015,06,29,19,26,21.90
2015,06,29,19,27,21.70
2015,06,29,19,28,21.60
2015,06,29,19,29,21.30
2015,06,29,19,31,20.90
2015,06,29,19,32,20.70
2015,06,29,19,33,20.50
2015,06,29,19,34,20.40
2015,06,29,19,35,20.30
2015,06,29,19,36,20.20
2015,06,29,19,37,20.20
2015,06,29,19,38,20.10
2015,06,29,19,39,20.10
2015,06,29,19,40,20.10
2015,06,29,19,41,20.10
2015,06,29,19,42,20.20
2015,06,29,19,43,20.20
2015,06,29,19,44,20.20
2015,06,29,19,45,20.20
2015,06,29,19,46,20.20
2015,06,29,19,47,20.20
2015,06,29,19,48,20.10
2015,06,29,19,49,19.90
2015,06,29,19,50,19.90
2015,06,29,19,51,19.70
2015,06,29,19,52,19.60
2015,06,29,19,53,19.50
2015,06,29,19,54,19.40
2015,06,29,19,55,19.40
2015,06,29,19,56,19.30
2015,06,29,19,57,19.30
2015,06,29,19,58,19.30
2015,06,29,19,59,19.20
2015,06,29,20,00,19.20
2015,06,29,20,01,19.10
2015,06,29,20,02,19.10
2015,06,29,20,03,18.90
2015,06,29,20,04,18.90
2015,06,29,20,06,18.70
2015,06,29,20,07,18.50
2015,06,29,20,08,18.40
2015,06,29,20,09,18.30
2015,06,29,20,10,18.20
2015,06,29,20,11,18.10
2015,06,29,20,12,17.90
2015,06,29,20,13,17.90
2015,06,29,20,14,17.80
2015,06,29,20,15,17.80
2015,06,29,20,16,17.70
2015,06,29,20,17,17.70
2015,06,29,20,18,17.60
2015,06,29,20,19,17.60
2015,06,29,20,20,17.50
2015,06,29,20,21,17.50
2015,06,29,20,22,17.40
2015,06,29,20,23,17.40
2015,06,29,20,24,17.40
2015,06,29,20,25,17.30
2015,06,29,20,26,17.30
2015,06,29,20,27,17.30
2015,06,29,20,28,17.30
2015,06,29,20,29,17.30
2015,06,29,20,30,17.30
2015,06,29,20,32,17.30
2015,06,29,20,33,17.30
2015,06,29,20,34,17.40
2015,06,29,20,36,17.50
2015,06,29,20,37,17.60
2015,06,29,20,38,17.80
2015,06,29,20,39,17.90
2015,06,29,20,41,18.10
2015,06,29,20,42,18.20
2015,06,29,20,43,18.40
2015,06,29,20,44,18.60
2015,06,29,20,46,18.90
2015,06,29,20,47,19.10
2015,06,29,20,48,19.30
2015,06,29,20,49,19.50
2015,06,29,20,51,19.90
2015,06,29,20,52,20.20
2015,06,29,20,53,20.30
2015,06,29,20,54,20.50
2015,06,29,20,56,21.00
2015,06,29,20,57,21.20
2015,06,29,20,58,21.30
2015,06,29,20,59,21.60
2015,06,29,21,01,22.00
2015,06,29,21,02,22.20
2015,06,29,21,03,22.30
2015,06,29,21,04,22.50
2015,06,29,21,06,22.80
2015,06,29,21,07,22.90
2015,06,29,21,08,23.10
2015,06,29,21,09,23.20
2015,06,29,21,11,23.30
2015,06,29,21,12,23.30
2015,06,29,21,13,23.40
2015,06,29,21,14,23.40
2015,06,29,21,16,23.60
2015,06,29,21,17,23.60
2015,06,29,21,18,23.60
2015,06,29,21,19,23.60
2015,06,29,21,21,23.70
2015,06,29,21,22,23.70
2015,06,29,21,23,23.70
2015,06,29,21,24,23.70
2015,06,29,21,26,23.70
2015,06,29,21,27,23.70
2015,06,29,21,28,23.70
2015,06,29,21,29,23.70
2015,06,29,21,30,23.70
2015,06,29,21,31,23.70
2015,06,29,21,32,23.70
2015,06,29,21,33,23.70
2015,06,29,21,34,23.70
2015,06,29,21,35,23.70
2015,06,29,21,36,23.70
2015,06,29,21,37,23.70
2015,06,29,21,38,23.70
2015,06,29,21,39,23.70
2015,06,29,21,40,23.70
2015,06,29,21,41,23.70
2015,06,29,21,42,23.70
2015,06,29,21,43,23.70
2015,06,29,21,44,23.70
2015,06,29,21,45,23.70
2015,06,29,21,46,23.70
2015,06,29,21,47,23.70
2015,06,29,21,48,23.70
2015,06,29,21,49,23.70
2015,06,29,21,50,23.70
2015,06,29,21,51,23.70
2015,06,29,21,52,23.70
2015,06,29,21,53,23.70
2015,06,29,21,54,23.70
2015,06,29,21,55,23.60
2015,06,29,21,56,23.60
2015,06,29,21,57,23.60
2015,06,29,21,58,23.60
2015,06,29,21,59,23.60
2015,06,29,22,00,23.60
2015,06,29,22,01,23.60
2015,06,29,22,02,23.60
2015,06,29,22,03,23.60
2015,06,29,22,04,23.60
2015,06,29,22,05,23.60
2015,06,29,22,06,23.60
2015,06,29,22,07,23.60
2015,06,29,22,08,23.60
2015,06,29,22,09,23.60
2015,06,29,22,10,23.60
2015,06,29,22,11,23.40
2015,06,29,22,12,23.40
2015,06,29,22,13,23.40
2015,06,29,22,14,23.40
2015,06,29,22,15,23.30
2015,06,29,22,16,23.30
2015,06,29,22,17,23.30
2015,06,29,22,18,23.30
2015,06,29,22,19,23.30
2015,06,29,22,20,23.30
2015,06,29,22,21,23.30
2015,06,29,22,22,23.20
2015,06,29,22,23,23.20
2015,06,29,22,24,23.20
2015,06,29,22,25,23.10
2015,06,29,22,26,23.10
2015,06,29,22,27,23.10
2015,06,29,22,28,22.90
2015,06,29,22,29,22.90
2015,06,29,22,30,22.90
2015,06,29,22,32,22.80
2015,06,29,22,33,22.80
2015,06,29,22,34,22.80
2015,06,29,22,36,22.70
2015,06,29,22,37,22.70
2015,06,29,22,38,22.60
2015,06,29,22,39,22.60
2015,06,29,22,41,22.60
2015,06,29,22,42,22.50
2015,06,29,22,43,22.50
2015,06,29,22,44,22.50
2015,06,29,22,46,22.40
2015,06,29,22,47,22.40
2015,06,29,22,48,22.30
2015,06,29,22,49,22.30
2015,06,29,22,51,22.20
2015,06,29,22,52,22.10
2015,06,29,22,53,22.00
2015,06,29,22,54,22.00
2015,06,29,22,56,21.80
2015,06,29,22,57,21.80
2015,06,29,22,58,21.60
2015,06,29,22,59,21.60
2015,06,29,23,01,21.20
2015,06,29,23,02,21.10
2015,06,29,23,03,21.00
2015,06,29,23,04,20.90
2015,06,29,23,06,20.60
2015,06,29,23,07,20.40
2015,06,29,23,08,20.20
2015,06,29,23,09,20.20
2015,06,29,23,11,19.90
2015,06,29,23,12,19.80
2015,06,29,23,13,19.70
2015,06,29,23,14,19.60
2015,06,29,23,16,19.40
2015,06,29,23,17,19.40
2015,06,29,23,18,19.30
2015,06,29,23,19,19.20
2015,06,29,23,21,19.10
2015,06,29,23,22,19.10
2015,06,29,23,23,19.10
2015,06,29,23,24,18.90
2015,06,29,23,26,18.80
2015,06,29,23,27,18.70
2015,06,29,23,28,18.60
2015,06,29,23,29,18.50
2015,06,29,23,31,18.30
2015,06,29,23,32,18.20
2015,06,29,23,33,18.20
2015,06,29,23,34,18.20
2015,06,29,23,36,17.90
2015,06,29,23,37,17.90
2015,06,29,23,38,17.90
2015,06,29,23,39,17.90
2015,06,29,23,41,17.80
2015,06,29,23,42,17.80
2015,06,29,23,43,17.80
2015,06,29,23,44,17.80
2015,06,29,23,45,17.70
2015,06,29,23,46,17.70
2015,06,29,23,47,17.70
2015,06,29,23,48,17.70
2015,06,29,23,49,17.70
2015,06,29,23,50,17.70
2015,06,29,23,51,17.70
2015,06,29,23,52,17.70
2015,06,29,23,53,17.70
2015,06,29,23,54,17.70
2015,06,29,23,55,17.70
2015,06,29,23,56,17.70
2015,06,29,23,57,17.70
2015,06,29,23,58,17.70
2015,06,29,23,59,17.80
